sat.trackr.live / text

‹ back to catalog

STARLINK-31691

NORAD 59856 · 2024-097X

PAYLOAD ACTIVE UNKNOWN

§ Identity

Operator
Country
US
Launch date
2024-05-23
Launch site
AFETR
Launch vehicle
Mass (kg)
RCS (m²)

Purposes: comms

External: N2YO · Heavens-Above · Gunter

§ Orbital elements

Epoch: 2026-09-21T16:00:02.873952Z

Period
94.27 min
Inclination
43.0027°
Eccentricity
0.0000905
Mean motion
15.27571798 rev/d
Perigee alt
482.5 km
Apogee alt
483.7 km
Semi-major
6,861.2 km
B*
1.1645e-7
RAAN
247.1717°
Arg perigee
270.2173°
Mean anomaly
89.8575°
Rev number
13,189

§ Raw data

STARLINK-316911 59856U 24097X   26264.66669993 -.00000259  00000+0  11645-6 0  99982 59856  43.0027 247.1717 0000905 270.2173  89.8575 15.27571798131892

JSON: /api/v1/satellites/59856 · /tle

For live sub-satellite position, see the globe view (requires WebGL).

§ Visibility from observer

Set your observer location to see the next 7 days of passes ≥ 10°. The values pass through the URL so the page stays shareable.

No JS? Fill the form by hand. The geolocation button needs JavaScript.